[[{"header":{"parameterUnit":"m.s-1","parameterCategory":1,"la1":30.2991,"la2":30.254,"lo1":-89.0895,"lo2":-89.0444,"dy":0.0017,"dx":0.0017,"nx":28,"ny":28,"refTime":"2025-07-07T09:00:00:Z","depth":0,"parameterNumber":2,"parameterNumberName":"U-component_of_WINDS"},"data":[0,0,0,0,0,0,0,0,0,0,0,0,0,0,0,0,0,0,0,0,0,0,0,0,0,0,0,0,0,0,0,0,0,0,0,0,0,0,0,0,0,0,0,0,0,0,0,0,0,0,0,0,0,0,0,0,0,0,1.2421,1.2423,0,1.2587,1.2589,1.2591,1.2642,1.2641,1.264,1.264,1.281,1.2815,1.282,0,0,0,0,0,0,0,0,0,0,0,0,0,1.2146,1.2151,1.2421,1.2423,1.2425,1.2587,1.2589,1.2591,1.2642,1.2641,1.264,1.2639,1.2808,1.2814,1.2821,0,0,0,0,0,0,0,0,0,0,0,0,0,1.2284,1.2152,1.242,1.247,1.2476,1.2586,1.2589,1.2592,1.2642,1.2641,1.264,1.2639,1.2806,1.2814,1.2822,1.2895,0,0,1.2846,1.2849,0,0,0,0,0,0,0,0,1.2276,1.2294,1.246,1.2466,1.2473,1.2593,1.2555,1.2694,1.2643,1.2579,1.264,1.2638,1.2739,1.2752,1.2786,1.2903,1.291,1.2847,1.2851,1.2855,1.2857,0,0,0,0,0,0,0,1.2266,1.2287,1.2486,1.2463,1.2471,1.2483,1.2501,1.2581,1.2664,1.2584,1.2589,1.2608,1.2742,1.2778,1.279,1.2913,1.2846,1.2854,1.2858,1.2862,1.3098,1.3099,0,0,0,0,0,0,1.2249,1.2279,1.2481,1.2491,1.237,1.2489,1.251,1.2556,1.2663,1.2678,1.2608,1.2609,1.2765,1.2781,1.2796,1.2889,1.2855,1.2862,1.2867,1.3096,1.3098,1.31,0,0,0,0,0,0,1.2242,1.2266,1.2474,1.2386,1.2414,1.2495,1.2546,1.2559,1.2596,1.2681,1.2696,1.263,1.2765,1.2785,1.287,1.2896,1.2866,1.2873,1.3095,1.3097,1.3099,1.3075,0,0,0,0,0,0,1.2234,1.2264,1.2293,1.2387,1.2418,1.2545,1.2548,1.2564,1.2609,1.2612,1.2706,1.272,1.2765,1.2858,1.2878,1.2906,1.2879,1.3093,1.3096,1.3098,1.3074,1.3076,1.3078,0,0,0,0,0,1.2224,1.2279,1.2294,1.2318,1.2456,1.2547,1.2565,1.2616,1.2611,1.2641,1.2695,1.2717,1.289,1.2866,1.2889,1.292,1.3091,1.3095,1.3098,1.3073,1.3076,1.3078,0,0,0,0,0,0,1.2187,1.2293,1.231,1.2397,1.2462,1.2555,1.2594,1.2618,1.2686,1.2686,1.2747,1.2767,1.2847,1.2892,1.2864,1.2996,1.2991,1.2999,1.2964,1.2967,1.297,1.2957,1.2886,0,0,0,0,0,1.2188,1.2253,1.2342,1.241,1.2442,1.2512,1.2554,1.2588,1.2658,1.2686,1.2747,1.2814,1.2884,1.2928,1.2997,1.308,1.3101,1.3113,1.3115,1.3116,1.3123,1.317,1.3176,1.3111,1.3111,1.3111,0,0,1.2193,1.2259,1.2296,1.2405,1.2459,1.2525,1.2536,1.2605,1.2653,1.2697,1.278,1.2827,1.2906,1.299,1.303,1.303,1.3145,1.3121,1.3121,1.3127,1.3174,1.318,1.3185,1.3113,1.3113,1.3113,0,0,1.2234,1.2291,1.2353,1.2408,1.249,1.2537,1.2551,1.2641,1.2673,1.2758,1.2791,1.285,1.2969,1.3024,1.3067,1.3128,1.315,1.3148,1.3159,1.3204,1.3209,1.3214,1.3235,1.3242,1.3154,1.3154,1.3154,0,1.2229,1.2329,1.2383,1.245,1.2496,1.2538,1.2601,1.2652,1.2752,1.2783,1.2781,1.293,1.2986,1.3084,1.3098,1.3132,1.3151,1.3138,1.3204,1.321,1.3215,1.3236,1.3244,1.3154,1.3154,1.3154,1.3154,0,1.2319,1.2387,1.2428,1.2524,1.2575,1.264,1.2703,1.2748,1.2777,1.2823,1.2908,1.2977,1.306,1.3085,1.3115,1.3187,1.3184,1.3192,1.3189,1.3219,1.324,1.3249,1.3152,1.3153,1.3153,1.3153,0,0,1.2341,1.2465,1.2479,1.2523,1.2617,1.2671,1.2737,1.2818,1.2855,1.2923,1.298,1.3079,1.3087,1.3136,1.3172,1.3211,1.3254,1.3215,1.3218,1.3219,1.3337,1.3329,1.3338,1.3269,1.3271,1.3272,1.333,0,1.2394,1.2515,1.2565,1.2662,1.2726,1.2766,1.2824,1.2887,1.2931,1.2992,1.3041,1.311,1.3116,1.3145,1.3186,1.324,1.3278,1.3236,1.3322,1.3324,1.3301,1.3349,1.3342,1.3393,1.3338,1.334,1.3341,0,1.2473,1.2541,1.2644,1.2729,1.2758,1.2809,1.2887,1.2944,1.3016,1.3046,1.31,1.3133,1.3204,1.3195,1.3293,1.3263,1.3301,1.3333,1.3336,1.3346,1.3334,1.336,1.3411,1.3418,1.3354,1.3353,1.3352,0,1.2478,1.2596,1.2673,1.2709,1.281,1.2845,1.2889,1.296,1.3005,1.3073,1.3103,1.3178,1.3219,1.3276,1.3328,1.3317,1.3421,1.3416,1.3447,1.3445,1.3467,1.3465,1.3525,1.3492,1.3491,1.3491,1.3491,0,1.2532,1.2594,1.2676,1.2724,1.2794,1.285,1.2918,1.2964,1.3027,1.3083,1.3122,1.3175,1.3241,1.3301,1.3343,1.3417,1.3435,1.3461,1.3471,1.3458,1.3454,1.3483,1.3481,1.3493,1.3493,1.3493,1.3492,0,1.255,1.2608,1.2695,1.2783,1.2807,1.2855,1.293,1.2977,1.3023,1.3095,1.3114,1.3187,1.326,1.3318,1.3413,1.3441,1.3519,1.3531,1.3495,1.35,1.3527,1.3523,1.3607,1.3621,1.3578,1.3579,1.3579,0,1.2581,1.2629,1.2723,1.2764,1.2807,1.2872,1.2918,1.2975,1.3021,1.3107,1.3143,1.3219,1.3283,1.3398,1.3459,1.3532,1.3545,1.357,1.3557,1.3541,1.3545,1.3542,1.3546,1.3571,1.3571,1.3571,1.3571,0,1.2629,1.2655,1.272,1.2795,1.2849,1.291,1.2973,1.3004,1.3072,1.3122,1.3197,1.3246,1.3343,1.3418,1.3497,1.3542,1.3568,1.3575,1.3586,1.3572,1.3549,1.3562,1.3498,1.3573,1.3573,1.3573,1.3573,1.3572,1.2654,1.2699,1.2771,1.2842,1.2895,1.2952,1.3001,1.3053,1.3116,1.32,1.3229,1.3306,1.3377,1.3486,1.3531,1.3592,1.3593,1.3609,1.3613,1.3616,1.3614,1.3539,1.3606,1.3606,1.3606,1.3606,1.3607,0,1.2704,1.2752,1.2817,1.2903,1.2958,1.2978,1.3048,1.3093,1.316,1.3224,1.3285,1.3371,1.3443,1.3509,1.3585,1.3621,1.3634,1.3639,1.3636,1.3646,1.3609,1.3592,1.3626,1.3626,1.3626,1.3626,1.3626,1.3626,1.2736,1.2812,1.2847,1.2949,1.2997,1.3073,1.3111,1.3164,1.3215,1.3309,1.3369,1.3412,1.3476,1.3556,1.3623,1.3641,1.3666,1.3667,1.3688,1.3652,1.3649,1.3646,1.3631,1.3673,1.3673,1.372,1.3721,1.3721]},{"header":{"parameterUnit":"m.s-1","parameterCategory":1,"la1":30.2991,"la2":30.254,"lo1":-89.0895,"lo2":-89.0444,"dy":0.0017,"dx":0.0017,"nx":28,"ny":28,"refTime":"2025-07-07T09:00:00:Z","depth":0,"parameterNumber":3,"parameterNumberName":"V-component_of_WINDS"},"data":[0,0,0,0,0,0,0,0,0,0,0,0,0,0,0,0,0,0,0,0,0,0,0,0,0,0,0,0,0,0,0,0,0,0,0,0,0,0,0,0,0,0,0,0,0,0,0,0,0,0,0,0,0,0,0,0,0,0,5.4843,5.4843,0,5.4858,5.4858,5.4858,5.4802,5.48,5.4798,5.4797,5.481,5.4812,5.4814,0,0,0,0,0,0,0,0,0,0,0,0,0,5.4761,5.4763,5.4843,5.4843,5.4843,5.4858,5.4858,5.4859,5.4802,5.48,5.4798,5.4796,5.4809,5.4812,5.4814,0,0,0,0,0,0,0,0,0,0,0,0,0,5.4789,5.4764,5.4843,5.4817,5.4814,5.4858,5.4858,5.4859,5.4802,5.48,5.4797,5.4795,5.4809,5.4812,5.4814,5.4883,0,0,5.4823,5.4825,0,0,0,0,0,0,0,0,5.4787,5.4792,5.482,5.4819,5.4816,5.4825,5.4835,5.4867,5.4803,5.4807,5.4796,5.4794,5.4817,5.4819,5.4828,5.4884,5.4884,5.4824,5.4825,5.4827,5.4827,0,0,0,0,0,0,0,5.4785,5.4791,5.4849,5.4821,5.4818,5.4803,5.4804,5.484,5.4826,5.4806,5.4802,5.4805,5.4815,5.4825,5.4827,5.4885,5.4823,5.4826,5.4828,5.4829,5.4997,5.5,0,0,0,0,0,0,5.4787,5.479,5.4848,5.4849,5.4795,5.4807,5.4808,5.4825,5.4825,5.4823,5.4807,5.4802,5.4821,5.4824,5.4828,5.4907,5.4827,5.4829,5.4831,5.4994,5.4998,5.5,0,0,0,0,0,0,5.4786,5.4793,5.4848,5.4818,5.4824,5.4811,5.483,5.4827,5.4836,5.4826,5.4823,5.482,5.4819,5.4824,5.487,5.4907,5.4831,5.4833,5.4991,5.4995,5.4999,5.5068,0,0,0,0,0,0,5.4784,5.4793,5.4819,5.4819,5.4826,5.489,5.4833,5.4829,5.4841,5.4835,5.4837,5.4835,5.4818,5.4866,5.4873,5.491,5.4835,5.4988,5.4993,5.4998,5.5062,5.5074,5.5084,0,0,0,0,0,5.4781,5.4838,5.4821,5.4828,5.4859,5.4893,5.4896,5.4876,5.4845,5.4871,5.4864,5.4835,5.4902,5.4871,5.4878,5.4917,5.4985,5.4991,5.4997,5.5057,5.5072,5.5084,0,0,0,0,0,0,5.4842,5.4837,5.4819,5.4878,5.4886,5.4883,5.4915,5.4892,5.4909,5.4902,5.4876,5.4877,5.4927,5.4927,5.4892,5.4983,5.4938,5.4946,5.4981,5.4995,5.5005,5.5004,5.4838,0,0,0,0,0,5.4862,5.4891,5.4885,5.4937,5.4943,5.4929,5.4942,5.4926,5.4934,5.4937,5.4933,5.4941,5.4964,5.4979,5.5,5.5062,5.5061,5.5092,5.5103,5.5112,5.5119,5.5151,5.5164,5.5021,5.5021,5.502,0,0,5.4904,5.4906,5.4925,5.495,5.4954,5.4983,5.4932,5.4965,5.4986,5.4941,5.4985,5.4983,5.4989,5.5044,5.5068,5.5045,5.5159,5.512,5.5127,5.5129,5.5159,5.5172,5.5184,5.5025,5.5024,5.5023,0,0,5.4996,5.5,5.5044,5.505,5.5058,5.5048,5.5059,5.5059,5.5057,5.51,5.5067,5.5091,5.5131,5.5137,5.5145,5.524,5.5212,5.5247,5.5303,5.5335,5.5346,5.5356,5.5388,5.54,5.5254,5.5254,5.5254,0,5.5047,5.5091,5.5069,5.5105,5.5116,5.5078,5.5121,5.5128,5.5142,5.515,5.5125,5.5174,5.5176,5.5231,5.5254,5.5262,5.5273,5.5246,5.5346,5.5356,5.5365,5.5395,5.5408,5.5258,5.5258,5.5257,5.5257,0,5.5152,5.5183,5.5217,5.5233,5.5248,5.5287,5.5271,5.5289,5.5272,5.5264,5.5308,5.531,5.5329,5.5341,5.5324,5.5394,5.5379,5.5351,5.5305,5.5383,5.5411,5.5423,5.5264,5.5263,5.5261,5.526,0,0,5.5282,5.5285,5.5298,5.5304,5.5311,5.5333,5.5371,5.5391,5.5406,5.5417,5.5447,5.5482,5.5455,5.5465,5.5448,5.5477,5.555,5.5444,5.5444,5.5463,5.5625,5.5646,5.566,5.5532,5.5535,5.5536,5.5624,0,5.5371,5.5436,5.5418,5.5482,5.5509,5.5474,5.5506,5.5513,5.5507,5.5529,5.5522,5.5547,5.551,5.5516,5.5542,5.5535,5.5582,5.5529,5.5559,5.556,5.5557,5.5675,5.5697,5.578,5.5635,5.5637,5.5639,0,5.5484,5.55,5.5567,5.5568,5.5579,5.5609,5.5625,5.5647,5.5654,5.5647,5.5658,5.5636,5.5672,5.5627,5.5675,5.564,5.5651,5.565,5.5652,5.5653,5.5603,5.5678,5.5806,5.5819,5.5656,5.5655,5.5654,0,5.557,5.5609,5.5654,5.566,5.5663,5.5685,5.5687,5.5691,5.5704,5.5718,5.5726,5.5745,5.5755,5.5769,5.5752,5.5721,5.5803,5.5757,5.5798,5.5798,5.5815,5.5814,5.5946,5.5825,5.5825,5.5824,5.5824,0,5.5671,5.5714,5.5693,5.572,5.5766,5.5745,5.5791,5.5789,5.5793,5.5819,5.5789,5.5814,5.579,5.5813,5.58,5.5841,5.5846,5.5841,5.5837,5.5843,5.5844,5.5849,5.5843,5.5828,5.5827,5.5826,5.5826,0,5.5775,5.5763,5.581,5.5809,5.581,5.5844,5.5842,5.5867,5.5859,5.5892,5.5899,5.5887,5.5911,5.5896,5.5921,5.5913,5.5967,5.5955,5.5965,5.5961,5.6002,5.5998,5.6141,5.6159,5.6028,5.6029,5.603,0,5.584,5.5872,5.5874,5.589,5.5894,5.592,5.5933,5.5913,5.5928,5.5938,5.5962,5.5984,5.6001,5.6042,5.6035,5.6054,5.6042,5.6091,5.6044,5.6049,5.6041,5.6039,5.6042,5.61,5.6101,5.6102,5.6103,0,5.5956,5.5948,5.5969,5.5988,5.6005,5.6019,5.603,5.6044,5.6024,5.6042,5.6067,5.6081,5.6106,5.6129,5.6145,5.6146,5.6121,5.6118,5.6128,5.6135,5.6138,5.6136,5.5989,5.6115,5.6114,5.6113,5.6112,5.6112,5.6041,5.6068,5.6074,5.6097,5.6104,5.6115,5.6138,5.6134,5.6155,5.6175,5.6162,5.6191,5.6197,5.6216,5.622,5.6242,5.6222,5.6238,5.6241,5.6245,5.625,5.6136,5.6245,5.6245,5.6245,5.6244,5.6244,0,5.6154,5.6157,5.6179,5.6196,5.6214,5.6191,5.6202,5.6219,5.6245,5.6253,5.627,5.6299,5.6321,5.6316,5.6335,5.6354,5.6343,5.6359,5.6357,5.6357,5.6268,5.6256,5.6368,5.6368,5.6368,5.6368,5.6368,5.6368,5.6216,5.6258,5.6252,5.6297,5.6299,5.6328,5.6336,5.6346,5.6352,5.6386,5.6404,5.6401,5.6403,5.6422,5.644,5.6438,5.6446,5.6467,5.646,5.6376,5.6364,5.6352,5.6341,5.6469,5.6469,5.6548,5.6549,5.6549]}]]